Location: Unspecified
(0.0000°N, 0.0000°E)
Time: 06:57:20
(UTC+00:00)

Courier 1B - All Passes

Search period start: 26 October 2020 00:00
Search period end: 05 November 2020 00:00
Orbit: 963 x 1209 km, 28.3° (Epoch: 25 October)

Date Brightness Start Highest point End Pass type
(mag) Time Alt. Az. Time Alt. Az. Time Alt. Az.
26 Oct - 05:09:51 10° SSW 05:15:09 20° SSE 05:20:14 10° ESE visible
26 Oct - 07:02:37 10° SW 07:09:50 64° SSE 07:16:35 10° ENE daylight
26 Oct - 08:57:42 10° W 09:03:58 36° NNW 09:09:58 10° NE daylight
26 Oct - 16:43:19 10° N 16:47:12 16° NNE 16:51:12 10° ENE daylight
26 Oct - 18:34:56 10° NW 18:41:42 54° NNE 18:48:55 10° ESE visible
26 Oct - 20:29:07 10° W 20:36:01 46° SSW 20:43:20 10° SE visible
26 Oct - 22:26:45 10° WSW 22:31:06 16° SSW 22:35:32 10° SSE night (unlit)
27 Oct - 04:16:38 10° SSW 04:20:56 16° SSE 04:25:07 10° SE visible
27 Oct - 06:08:50 10° SW 06:15:56 47° SSE 06:22:35 10° E daylight
27 Oct - 08:03:15 10° WSW 08:10:09 51° NNW 08:16:39 10° NE daylight
27 Oct - 10:01:07 10° WNW 10:04:36 14° NNW 10:08:02 10° N daylight
27 Oct - 15:51:26 10° N 15:53:07 11° NNE 15:54:48 10° NE daylight
27 Oct - 17:41:34 10° NW 17:47:50 38° NNE 17:54:27 10° E daylight
27 Oct - 19:35:04 10° WNW 19:42:03 63° SSW 19:49:31 10° SE visible
27 Oct - 21:31:33 10° WSW 21:36:50 21° SSW 21:42:19 10° SSE visible
28 Oct - 03:23:46 10° S 03:26:36 12° SSE 03:29:25 10° SE visible
28 Oct - 05:15:09 10° SW 05:21:56 35° SSE 05:28:21 10° E visible
28 Oct - 07:09:00 10° WSW 07:16:19 72° NNW 07:23:09 10° NE daylight
28 Oct - 09:05:40 10° WNW 09:10:37 20° NNW 09:15:24 10° NNE daylight
28 Oct - 16:48:23 10° NNW 16:53:57 27° NNE 16:59:46 10° E daylight
28 Oct - 18:41:14 10° WNW 18:48:09 85° SSW 18:55:34 10° ESE visible
28 Oct - 20:36:46 10° W 20:42:41 27° SSW 20:48:54 10° SSE visible
29 Oct - 04:21:36 10° SSW 04:27:51 26° SSE 04:33:51 10° E visible
29 Oct - 06:14:54 10° WSW 06:22:26 83° SSE 06:29:29 10° ENE daylight
29 Oct - 08:10:39 10° W 08:16:41 29° NNW 08:22:25 10° NNE daylight
29 Oct - 15:55:27 10° NNW 16:00:02 19° NNE 16:04:45 10° ENE daylight
29 Oct - 17:47:35 10° NW 17:54:19 70° NNE 18:01:29 10° ESE daylight
29 Oct - 19:42:18 10° W 19:48:38 35° SSW 19:55:20 10° SE visible
29 Oct - 21:41:07 10° SW 21:43:54 12° SSW 21:46:45 10° S visible
30 Oct - 03:28:12 10° SSW 03:33:40 20° SSE 03:39:00 10° ESE visible
30 Oct - 05:20:57 10° SW 05:28:31 61° SSE 05:35:37 10° ENE visible
30 Oct - 07:15:58 10° W 07:22:47 40° NNW 07:29:13 10° NE daylight
30 Oct - 09:15:15 10° NW 09:17:30 12° NNW 09:19:43 10° N daylight
30 Oct - 15:02:52 10° N 15:06:02 14° NNE 15:09:15 10° NE daylight
30 Oct - 16:54:08 10° NW 17:00:30 49° NNE 17:07:14 10° ESE daylight
30 Oct - 18:48:07 10° WNW 18:54:40 48° SSW 19:01:40 10° SE visible
30 Oct - 20:45:28 10° WSW 20:49:36 16° SSW 20:53:52 10° SSE visible
31 Oct - 02:35:01 10° SSW 02:39:24 16° SSE 02:43:44 10° SE visible
31 Oct - 04:27:10 10° SW 04:34:31 45° SSE 04:41:31 10° E visible
31 Oct - 06:21:30 10° WSW 06:28:53 56° NNW 06:35:49 10° NE daylight
31 Oct - 08:19:06 10° WNW 08:23:24 17° NNW 08:27:35 10° NNE daylight
31 Oct - 16:00:50 10° NW 16:06:41 35° NNE 16:12:48 10° E daylight
31 Oct - 17:54:09 10° WNW 18:00:47 66° SSW 18:07:52 10° SE visible
31 Oct - 19:50:24 10° WSW 19:55:25 20° SSW 20:00:39 10° SSE visible
01 Nov - 01:42:15 10° S 01:45:01 12° SSE 01:47:47 10° SE visible
01 Nov - 03:33:29 10° SW 03:40:27 34° SSE 03:47:09 10° E visible
01 Nov - 05:27:15 10° WSW 05:34:58 78° NNW 05:42:14 10° NE daylight
01 Nov - 07:23:45 10° WNW 07:29:23 23° NNW 07:34:46 10° NNE daylight
01 Nov - 15:07:42 10° NNW 15:12:51 25° NNE 15:18:08 10° E daylight
01 Nov - 17:00:23 10° WNW 17:06:59 90° NE 17:13:59 10° ESE daylight
01 Nov - 18:55:43 10° W 19:01:21 27° SSW 19:07:16 10° SSE visible
02 Nov - 02:40:00 10° SSW 02:46:19 26° SSE 02:52:29 10° E visible
02 Nov - 04:33:11 10° SW 04:41:01 79° SSE 04:48:27 10° ENE visible
02 Nov - 06:28:47 10° W 06:35:23 32° NNW 06:41:39 10° NNE daylight
02 Nov - 14:14:47 10° NNW 14:18:56 18° NNE 14:23:08 10° ENE daylight
02 Nov - 16:06:47 10° NW 16:13:13 64° NNE 16:19:57 10° ESE daylight
02 Nov - 18:01:21 10° W 18:07:22 36° SSW 18:13:46 10° SE visible
02 Nov - 20:00:03 10° SW 20:02:28 12° SSW 20:04:56 10° S visible
03 Nov - 01:46:41 10° SSW 01:52:05 20° SSE 01:57:27 10° ESE visible
03 Nov - 03:39:16 10° SW 03:47:00 59° SSE 03:54:27 10° ENE visible
03 Nov - 05:34:07 10° W 05:41:24 44° NNW 05:48:20 10° NE daylight
03 Nov - 07:32:45 10° NW 07:36:12 14° NNW 07:39:34 10° N daylight
03 Nov - 13:22:17 10° N 13:24:56 13° NNE 13:27:35 10° NE daylight
03 Nov - 15:13:20 10° NW 15:19:28 45° NNE 15:25:46 10° E daylight
03 Nov - 17:07:12 10° WNW 17:13:30 49° SSW 17:20:09 10° SE daylight
03 Nov - 19:04:25 10° SW 19:08:15 15° SSW 19:12:12 10° SSE visible
04 Nov - 00:53:39 10° S 00:57:47 15° SSE 01:01:57 10° SE night (unlit)
04 Nov - 02:45:33 10° SW 02:52:57 43° SSE 03:00:12 10° E visible
04 Nov - 04:39:43 10° WSW 04:47:26 61° NNW 04:54:49 10° NE visible
04 Nov - 06:36:59 10° WNW 06:42:04 19° NNW 06:46:59 10° NNE daylight
04 Nov - 14:20:01 10° NNW 14:25:41 32° NNE 14:31:23 10° E daylight
04 Nov - 16:13:16 10° WNW 16:19:43 69° SSW 16:26:27 10° SE daylight
04 Nov - 18:09:24 10° WSW 18:14:09 20° SSW 18:19:06 10° SSE visible
